#timestamp,LO_Frequency,Hit,StdDev 
1625400015.1,286047004.0,Y
1625400035.9,286047011.9,P
1625400055.7,286046998.5,N
1625400075.5,286046998.6,N
1625400095.4,286046998.5,N
1625400115.2,286046999.3,N
1625400135.1,286046996.6,N
1625400136.0,286046996.6,N
1625400155.8,286046996.5,N
1625400175.6,286046997.0,N
1625400195.5,286046996.9,N
1625400215.3,286046999.6,N
1625400235.1,286046999.0,N
1625400255.9,286046999.2,N
1625400275.7,286046998.4,N
1625400295.6,286046996.6,N
1625400315.4,286046996.5,N
1625400335.2,286046998.8,N
1625400355.1,286047001.2,N
1625400356.0,286047001.2,N
1625400375.8,286046998.5,N
1625400395.6,286046999.4,N
1625400415.5,286046998.4,N
1625400435.3,286046998.8,N
1625400455.1,286046996.8,N
1625400475.9,286046997.1,N
1625400495.7,286046996.8,N
1625400515.6,286046997.4,N
1625400535.4,286046997.2,N
1625400555.2,286046996.7,N
1625400575.1,286046996.9,N
1625400576.0,286046996.9,N
1625400595.8,286046998.6,N
1625400615.7,286047000.7,N
1625400635.5,286046999.0,N
1625400655.3,286046998.1,N
1625400675.2,286047000.7,N
1625400695.0,286047002.8,N
1625400695.9,286047002.8,N
1625400715.7,286047001.7,N
1625400735.6,286047003.1,N
1625400755.4,286047000.1,N
1625400775.3,286046999.8,N
1625400795.1,286047000.3,N
1625400796.0,286047000.3,N
1625400815.8,286046998.6,N
1625400835.7,286046998.6,N
1625400855.5,286046998.4,N
1625400875.3,286046996.6,N
1625400895.2,286046995.3,N
1625400915.0,286046995.4,N
1625400915.9,286046995.4,N
1625400935.8,286046996.0,N
1625400955.6,286046995.3,N
1625400975.4,286046995.4,N
1625400995.3,286046997.4,N
1625401015.1,286046995.2,N
1625401035.9,286046995.5,N
1625401055.7,286046995.8,N
1625401075.5,286046997.2,N
1625401095.4,286046997.6,N
1625401115.2,286046996.1,N
1625401135.0,286046998.0,N
1625401135.9,286046998.0,N
1625401155.8,286046995.2,N
1625401175.6,286046995.2,N
1625401195.5,286046995.1,N
1625401215.3,286046996.8,N
1625401235.1,286046999.5,N
1625401255.9,286046997.2,N
1625401275.7,286046997.4,N
1625401295.6,286046998.0,N
1625401315.4,286046997.9,N
1625401335.2,286046997.3,N
1625401355.1,286046996.5,N
1625401356.0,286046996.5,N
1625401375.8,286047001.1,N
1625401395.6,286047000.7,N
1625401415.5,286046999.3,N
1625401435.3,286046997.1,N
1625401455.2,286046996.9,N
1625401475.9,286046997.5,N
1625401495.7,286046997.1,N
1625401515.6,286046997.7,N
1625401535.4,286046995.0,Y
1625401555.3,286047000.0,P
1625401575.1,286047000.4,N
1625401576.0,286047000.4,N
1625401595.8,286047002.6,N
1625401615.7,286047002.4,N
1625401635.5,286047000.0,N
1625401655.3,286047002.4,N
1625401675.2,286047002.0,N
1625401695.0,286047002.4,N
1625401695.9,286047002.4,N
1625401715.8,286047001.4,N
1625401735.6,286047001.8,N
1625401755.4,286047001.8,N
1625401775.3,286047001.4,N
1625401795.1,286047001.9,N
1625401815.8,286047001.8,N
1625401835.7,286047001.7,N
1625401855.5,286047001.4,N
1625401875.4,286047004.0,Y
1625401895.2,286047000.4,P
1625401915.0,286047002.7,P
1625401915.9,286047002.7,N
1625401935.8,286047002.7,N
1625401955.6,286047000.3,N
1625401975.4,286046998.4,N
1625401995.3,286047000.4,N
1625402015.1,286047000.8,N
1625402035.9,286047000.4,N
1625402055.7,286047000.9,N
1625402075.5,286047000.3,N
1625402095.4,286047001.1,N
1625402115.2,286047000.4,N
1625402135.0,286047001.0,N
1625402136.0,286047001.0,N
1625402155.8,286047000.0,N
1625402175.6,286047000.6,N
1625402195.5,286047000.3,N
1625402215.3,286047000.7,N
1625402235.1,286046998.1,N
1625402255.9,286046998.6,N
1625402275.7,286047000.7,N
1625402295.6,286046996.5,Y
1625402315.4,286046997.5,P
1625402335.2,286046995.7,N
1625402355.1,286046996.1,N
1625402356.0,286046996.1,N
1625402375.8,286046995.3,N
1625402395.6,286046995.8,N
1625402415.5,286046995.2,N
1625402435.3,286046997.6,N
1625402455.2,286046997.6,N
1625402475.9,286046997.6,N
1625402495.7,286046995.5,Y
1625402515.6,286046998.4,P
1625402535.4,286047001.2,N
1625402555.2,286046998.4,N
1625402575.1,286046998.7,N
1625402576.0,286046998.7,N
1625402595.8,286047001.2,N
1625402615.7,286046998.2,N
1625402635.5,286047000.5,N
1625402655.3,286046998.5,N
1625402675.2,286046999.0,N
1625402695.0,286046999.6,N
1625402695.9,286046999.6,N
1625402715.8,286046996.6,N
1625402735.6,286046996.9,N
1625402755.4,286046996.7,N
1625402775.3,286046999.6,N
1625402795.1,286046999.6,N
1625402815.8,286046999.4,N
1625402835.7,286046999.4,N
1625402855.5,286046999.6,N
1625402875.3,286046999.3,N
1625402895.2,286046999.0,N
1625402915.0,286046999.3,N
1625402915.9,286046999.3,N
1625402935.8,286046996.7,N
1625402955.6,286046997.4,N
1625402975.4,286046997.8,N
1625402995.3,286046997.2,N
1625403015.1,286046996.5,N
1625403035.9,286046997.3,N
1625403055.7,286046997.6,N
1625403075.5,286046995.4,Y
1625403095.4,286046999.4,P
1625403115.2,286046998.6,P
1625403135.0,286047001.2,P
1625403135.9,286047001.2,N
1625403155.8,286046998.4,N
1625403175.6,286046999.4,N
1625403195.5,286046998.7,N
1625403215.3,286046998.8,N
1625403235.1,286046998.7,N
1625403255.9,286046998.7,N
1625403275.7,286046998.4,N
1625403295.5,286046998.6,N
1625403315.4,286046999.1,N
1625403335.2,286046999.1,N
1625403355.1,286046998.1,N
1625403356.0,286046998.1,N
1625403375.8,286047001.0,N
1625403395.6,286046998.1,N
1625403415.5,286046998.3,N
1625403435.3,286047000.7,N
1625403455.1,286046998.3,N
1625403475.9,286047000.0,N
1625403495.7,286047000.0,N
1625403515.6,286047000.4,N
1625403535.4,286047000.8,N
1625403555.2,286046998.6,N
1625403575.1,286046998.5,N
1625403576.0,286046998.5,N
1625403595.8,286046998.6,N
